Tracking 19489 objects as of 23-Jan-2019
HD Live streaming from Space Station
objects crossing your sky now

FENGYUN 1C DEB

Track FENGYUN 1C DEB now!
10-day predictions


NORAD ID: 31631
Int'l Code: 1999-025CAM
Perigee: 749.1 km
Apogee: 1,027.3 km
Inclination: 99.3 °
Period: 102.6 minutes
Semi major axis: 7259 km
RCS: 0.0204 m2 (small)
Launch date: May 10, 1999
Source: People's Republic of China (PRC)
Launch site: Taiyaun Space Center, China (TSC)

Note: This is SATELLITE DEBRIS
aabbcc
Your satellite tracking list
Your tracking list is empty




NASA's NSSDC Master Catalog

Two Line Element Set (TLE):
1 31631U 99025CAM 19021.49111788 +.00001526 +00000-0 +85044-3 0  9999
2 31631 099.3073 123.7374 0191618 239.8167 118.3896 14.03685659594153
Source of the keplerian elements: AFSPC